Regional Weather Roundup
Issued by NWS Charleston, WV

Home | Current Version | Previous Version | Graphics & Text | Print | Product List | Glossary On
Versions: 1 2 3 4 5 6 7 8 9 10 11 12 13 14 15 16 17 18 19 20 21 22 23 24 25 26 27 28 29 30 31 32
000
ASUS41 KRLX 221210
RWRRLX
West Virginia Regional Weather Roundup
National Weather Service Charleston WV
800 AM EDT WED OCT 22 2014

Note: "fair" indicates few or no clouds below 12,000 feet with no
significant weather and/or obstructions to visibility.

WVZ003-221300-
Northern Panhandle of West Virginia

CITY           SKY/WX    TMP DP  RH WIND       PRES   REMARKS
WHEELING       CLOUDY    47  42  83 N13       30.13R
$$

WVZ009-221300-
Northwest West Virginia

CITY           SKY/WX    TMP DP  RH WIND       PRES   REMARKS
PARKERSBURG    CLOUDY    48  44  86 NW5       30.18R
$$

WVZ006-221300-
Western West Virginia

CITY           SKY/WX    TMP DP  RH WIND       PRES   REMARKS
HUNTINGTON     CLOUDY    45  41  86 NW7       30.19R
$$

WVZ015-221300-
West Central West Virginia

CITY           SKY/WX    TMP DP  RH WIND       PRES   REMARKS
CHARLESTON     DRIZZLE   45  43  93 NW7       30.16R
$$

WVZ022-031-221300-
North Central West Virginia

CITY           SKY/WX    TMP DP  RH WIND       PRES   REMARKS
CLARKSBURG     CLOUDY    47  45  93 N10G17    30.09R
MORGANTOWN     CLOUDY    49  43  80 N9G16     30.10R
$$

WVZ025-035-042-045-221300-
Southern West Virginia

CITY           SKY/WX    TMP DP  RH WIND       PRES   REMARKS
BECKLEY        LGT RAIN  41  39  93 NW10      30.10R FOG
LOGAN          LGT RAIN  43  43 100 NW5       30.15R
BLUEFIELD      CLOUDY    41  37  86 NW5       30.11R
LEWISBURG      CLOUDY    45  38  76 NW3       30.07R
$$

WVZ047-221300-
Northern Mountains of West Virginia

CITY           SKY/WX    TMP DP  RH WIND       PRES   REMARKS
ELKINS         CLOUDY    44  44 100 N3        30.07R FOG
$$

WVZ052-221300-
Eastern Panhandle of West Virginia

CITY           SKY/WX    TMP DP  RH WIND       PRES   REMARKS
MARTINSBURG    CLOUDY    54  45  71 N12       29.97R
PETERSBURG     CLOUDY   N/A N/A N/A CALM      30.03R
$$



USA.gov is the U.S. government's official web portal to all federal, state and local government web resources and services.